Winfield, KS

11:05 AM CST on January 23, 2018 (GMT -0600)
Strother

Weather History for KWLD - March, 2013

Change the Weather History Date:

Wednesday, March 6, 2013

  Actual Average Record
Temperature  
Mean Temperature 34 °F -  
Max Temperature 48 °F 51 °F 77 °F (2017)
Min Temperature 21 °F 28 °F 19 °F (2003)
Degree Days  
Heating Degree Days 30    
Moisture  
Dew Point 20 °F    
Average Humidity 57    
Maximum Humidity 85    
Minimum Humidity 30    
Precipitation  
Precipitation 0.00 in - - ()
Sea Level Pressure  
Sea Level Pressure 30.37 in    
Wind  
Wind Speed 5 mph (East)    
Max Wind Speed 13 mph    
Max Gust Speed -    
Visibility 10 miles    
Events      
Averages and records for this station are not official NWS values.
T = Trace of Precipitation, MM = Missing Value Source: NWS Daily Summary

Daily Weather History Graph

Daily Weather History Graph

Search for Another Location

Airport or City:

Trip Planner

Search our weather history database for the weather conditions in past years. The results will help you decide how hot, cold, wet, or windy it might be!

Date:

Astronomy

Mar. 06, 2013 Rise Set
Actual Time 6:51 AM CST 6:27 PM CST
Civil Twilight 6:25 AM CST 6:53 PM CST
Nautical Twilight 5:55 AM CST 7:23 PM CST
Astronomical Twilight 5:25 AM CST 7:53 PM CST
Moon 2:56 AM CST (3/6) 1:15 PM CST (3/6)
Length of Visible Light 12h 27m
Length of Day
11h 35m
Waning Crescent, 29% of the Moon is Illuminated
Mar 6
Waning Crescent
Mar 11
New
Mar 19
First Quarter
Mar 27
Full
Apr 2
Last Quarter

Hourly Weather History & Observations

Time (CST) Temp. Windchill Dew Point Humidity Pressure Visibility Wind Dir Wind Speed Gust Speed Precip Events Conditions
12:54 AM 26.1 °F 21.9 °F 21.0 °F 81% 30.43 in 10.0 mi North 3.5 mph - N/A   Clear
1:54 AM 23.0 °F 18.4 °F 19.0 °F 85% 30.45 in 10.0 mi NNW 3.5 mph - N/A   Clear
2:54 AM 23.0 °F 18.4 °F 19.0 °F 85% 30.44 in 10.0 mi NNW 3.5 mph - N/A   Clear
3:54 AM 26.1 °F 20.5 °F 19.0 °F 75% 30.43 in 10.0 mi NNE 4.6 mph - N/A   Clear
4:54 AM 21.0 °F - 17.1 °F 85% 30.45 in 10.0 mi Calm Calm - N/A   Clear
5:54 AM 24.1 °F 18.2 °F 18.0 °F 77% 30.44 in 10.0 mi ENE 4.6 mph - N/A   Clear
6:54 AM 23.0 °F 15.8 °F 17.1 °F 78% 30.44 in 10.0 mi ENE 5.8 mph - N/A   Clear
7:54 AM 25.0 °F - 19.0 °F 78% 30.47 in 10.0 mi Calm Calm - N/A   Clear
8:54 AM 28.0 °F 22.8 °F 19.0 °F 69% 30.48 in 10.0 mi SE 4.6 mph - N/A   Clear
9:54 AM 32.0 °F 28.7 °F 21.0 °F 64% 30.49 in 10.0 mi Variable 3.5 mph - N/A   Clear
10:54 AM 35.1 °F 31.0 °F 19.9 °F 54% 30.47 in 7.0 mi SSE 4.6 mph - N/A   Clear
11:54 AM 39.0 °F 36.8 °F 21.0 °F 49% 30.45 in 10.0 mi NNE 3.5 mph - N/A   Clear
12:54 PM 42.1 °F 40.2 °F 21.0 °F 43% 30.41 in 10.0 mi Variable 3.5 mph - N/A   Clear
1:54 PM 44.1 °F - 19.9 °F 38% 30.37 in 10.0 mi Calm Calm - N/A   Clear
2:54 PM 46.0 °F 41.9 °F 18.0 °F 33% 30.34 in 10.0 mi SSE 8.1 mph - N/A   Clear
3:54 PM 48.0 °F - 18.0 °F 30% 30.31 in 10.0 mi SE 8.1 mph - N/A   Clear
4:54 PM 48.0 °F - 18.0 °F 30% 30.29 in 10.0 mi SE 9.2 mph - N/A   Clear
5:54 PM 46.0 °F 41.9 °F 19.0 °F 34% 30.26 in 10.0 mi SE 8.1 mph - N/A   Clear
6:54 PM 44.1 °F 40.1 °F 19.9 °F 38% 30.25 in 10.0 mi ESE 6.9 mph - N/A   Clear
7:54 PM 43.0 °F 38.2 °F 21.0 °F 42% 30.25 in 10.0 mi ESE 8.1 mph - N/A   Clear
8:54 PM 41.0 °F 35.2 °F 23.0 °F 49% 30.24 in 10.0 mi ESE 9.2 mph - N/A   Clear
9:54 PM 41.0 °F 33.9 °F 23.0 °F 49% 30.22 in 10.0 mi SE 12.7 mph - N/A   Clear
10:54 PM 39.0 °F 34.8 °F 23.0 °F 53% 30.24 in 10.0 mi ESE 5.8 mph - N/A   Clear
11:54 PM 37.0 °F 32.4 °F 24.1 °F 59% 30.23 in 10.0 mi ESE 5.8 mph - N/A   Clear